Time,TemperatureF,DewpointF,PressureIn,WindDirection,WindDirectionDegrees,WindSpeedMPH,WindSpeedGustMPH,Humidity,HourlyPrecipIn,Conditions,Clouds,dailyrainin,SolarRadiationWatts/m^2,SoftwareType,DateUTC
2013-05-09 00:00:00,50.3,34.3,29.85,WSW,246,2.0,2.0,54,0.00,,,0.01,0,Wunderground v.1.15,2013-05-09 06:00:00,
2013-05-09 00:05:00,50.3,34.3,29.85,WSW,246,2.0,2.0,54,0.00,,,0.00,0,Wunderground v.1.15,2013-05-09 06:05:00,
2013-05-09 00:10:00,50.1,34.1,29.85,WSW,246,1.0,1.0,54,0.00,,,0.00,0,Wunderground v.1.15,2013-05-09 06:10:00,
2013-05-09 00:20:00,49.7,33.7,29.85,WNW,282,2.0,3.0,54,0.00,,,0.00,0,Wunderground v.1.15,2013-05-09 06:20:00,
2013-05-09 00:25:00,49.4,33.9,29.85,WNW,282,2.0,3.0,55,0.00,,,0.00,0,Wunderground v.1.15,2013-05-09 06:25:00,
2013-05-09 00:30:00,49.3,33.8,29.85,WNW,282,1.0,2.0,55,0.00,,,0.00,0,Wunderground v.1.15,2013-05-09 06:30:00,
2013-05-09 00:35:00,49.2,34.2,29.85,WNW,282,1.0,2.0,56,0.00,,,0.00,0,Wunderground v.1.15,2013-05-09 06:35:00,
2013-05-09 00:40:00,49.0,34.0,29.85,WNW,282,1.0,1.0,56,0.00,,,0.00,0,Wunderground v.1.15,2013-05-09 06:40:00,
2013-05-09 00:45:00,48.7,33.7,29.85,WNW,282,1.0,1.0,56,0.00,,,0.00,0,Wunderground v.1.15,2013-05-09 06:45:00,
2013-05-09 00:50:00,48.5,33.9,29.85,WNW,282,1.0,1.0,57,0.00,,,0.00,0,Wunderground v.1.15,2013-05-09 06:50:00,
2013-05-09 01:00:00,47.8,33.7,29.86,WNW,282,2.0,2.0,58,0.00,,,0.00,0,Wunderground v.1.15,2013-05-09 07:00:00,
2013-05-09 01:10:00,47.7,33.6,29.86,WNW,282,2.0,2.0,58,0.00,,,0.00,0,Wunderground v.1.15,2013-05-09 07:10:00,
2013-05-09 01:15:00,48.0,33.9,29.86,West,270,2.0,2.0,58,0.00,,,0.00,0,Wunderground v.1.15,2013-05-09 07:15:00,
2013-05-09 01:20:00,48.0,33.9,29.86,West,270,1.0,1.0,58,0.00,,,0.00,0,Wunderground v.1.15,2013-05-09 07:20:00,
2013-05-09 01:25:00,47.9,33.8,29.86,West,270,1.0,1.0,58,0.00,,,0.00,0,Wunderground v.1.15,2013-05-09 07:25:00,
2013-05-09 01:30:00,47.8,33.7,29.86,West,270,2.0,2.0,58,0.00,,,0.00,0,Wunderground v.1.15,2013-05-09 07:30:00,
2013-05-09 01:40:00,47.7,33.6,29.86,West,270,1.0,2.0,58,0.00,,,0.00,0,Wunderground v.1.15,2013-05-09 07:40:00,
2013-05-09 01:45:00,47.5,33.4,29.86,West,270,2.0,5.0,58,0.00,,,0.00,0,Wunderground v.1.15,2013-05-09 07:45:00,
2013-05-09 01:50:00,47.4,33.4,29.86,West,270,3.0,5.0,58,0.00,,,0.00,0,Wunderground v.1.15,2013-05-09 07:50:00,
2013-05-09 01:55:00,47.4,33.4,29.86,West,270,4.0,5.0,58,0.00,,,0.00,0,Wunderground v.1.15,2013-05-09 07:55:00,
2013-05-09 02:00:00,47.4,33.4,29.86,West,270,2.0,2.0,58,0.00,,,0.00,0,Wunderground v.1.15,2013-05-09 08:00:00,
2013-05-09 02:10:00,47.6,33.5,29.85,West,270,1.0,1.0,58,0.00,,,0.00,0,Wunderground v.1.15,2013-05-09 08:10:00,
2013-05-09 02:20:00,47.8,33.3,29.85,West,270,2.0,2.0,57,0.00,,,0.00,0,Wunderground v.1.15,2013-05-09 08:20:00,
2013-05-09 02:25:00,47.8,33.3,29.85,West,266,3.0,7.0,57,0.00,,,0.00,0,Wunderground v.1.15,2013-05-09 08:25:00,
2013-05-09 02:35:00,48.3,33.3,29.85,WSW,245,4.0,4.0,56,0.00,,,0.00,0,Wunderground v.1.15,2013-05-09 08:35:00,
2013-05-09 02:40:00,48.3,33.3,29.84,WSW,253,3.0,5.0,56,0.00,,,0.00,0,Wunderground v.1.15,2013-05-09 08:40:00,
2013-05-09 02:50:00,48.4,33.4,29.84,WSW,252,1.0,1.0,56,0.00,,,0.00,0,Wunderground v.1.15,2013-05-09 08:50:00,
2013-05-09 02:55:00,48.4,33.4,29.84,WSW,255,1.0,1.0,56,0.00,,,0.00,0,Wunderground v.1.15,2013-05-09 08:55:00,
2013-05-09 03:05:00,47.8,33.3,29.84,WSW,255,0.0,1.0,57,0.00,,,0.00,0,Wunderground v.1.15,2013-05-09 09:05:00,
2013-05-09 03:10:00,47.6,33.1,29.84,WSW,255,0.0,0.0,57,0.00,,,0.00,0,Wunderground v.1.15,2013-05-09 09:10:00,
2013-05-09 03:15:00,47.3,33.3,29.84,WSW,257,1.0,1.0,58,0.00,,,0.00,0,Wunderground v.1.15,2013-05-09 09:15:00,
2013-05-09 03:20:00,47.0,34.2,29.84,West,263,2.0,3.0,61,0.00,,,0.00,0,Wunderground v.1.15,2013-05-09 09:20:00,
2013-05-09 03:30:00,46.6,33.0,29.84,West,261,3.0,3.0,59,0.00,,,0.00,0,Wunderground v.1.15,2013-05-09 09:30:00,
2013-05-09 03:35:00,46.5,32.9,29.84,West,261,2.0,3.0,59,0.00,,,0.00,0,Wunderground v.1.15,2013-05-09 09:35:00,
2013-05-09 03:40:00,46.5,32.9,29.85,West,261,2.0,2.0,59,0.00,,,0.00,0,Wunderground v.1.15,2013-05-09 09:40:00,
2013-05-09 03:50:00,46.6,33.0,29.85,West,261,2.0,3.0,59,0.00,,,0.00,0,Wunderground v.1.15,2013-05-09 09:50:00,
2013-05-09 03:55:00,46.7,33.1,29.85,West,261,2.0,3.0,59,0.00,,,0.00,0,Wunderground v.1.15,2013-05-09 09:55:00,
2013-05-09 04:00:00,46.8,33.2,29.84,West,261,2.0,2.0,59,0.00,,,0.00,0,Wunderground v.1.15,2013-05-09 10:00:00,
2013-05-09 04:10:00,46.7,33.1,29.84,West,261,1.0,1.0,59,0.00,,,0.00,0,Wunderground v.1.15,2013-05-09 10:10:00,
2013-05-09 04:20:00,46.1,32.6,29.84,West,261,1.0,1.0,59,0.00,,,0.00,0,Wunderground v.1.15,2013-05-09 10:20:00,
2013-05-09 04:25:00,46.1,32.1,29.85,West,261,1.0,1.0,58,0.00,,,0.00,0,Wunderground v.1.15,2013-05-09 10:25:00,
2013-05-09 04:30:00,46.1,32.6,29.85,West,261,1.0,1.0,59,0.00,,,0.00,0,Wunderground v.1.15,2013-05-09 10:30:00,
2013-05-09 04:40:00,46.2,32.7,29.84,WSW,254,1.0,2.0,59,0.00,,,0.00,0,Wunderground v.1.15,2013-05-09 10:40:00,
2013-05-09 04:45:00,46.2,32.7,29.85,WSW,258,2.0,4.0,59,0.00,,,0.00,0,Wunderground v.1.15,2013-05-09 10:45:00,
2013-05-09 04:55:00,46.1,32.6,29.85,WNW,284,3.0,4.0,59,0.00,,,0.00,0,Wunderground v.1.15,2013-05-09 10:55:00,
2013-05-09 05:05:00,45.5,32.4,29.85,WNW,285,0.0,1.0,60,0.00,,,0.00,0,Wunderground v.1.15,2013-05-09 11:05:00,
2013-05-09 05:10:00,45.3,32.6,29.85,WNW,284,1.0,1.0,61,0.00,,,0.00,0,Wunderground v.1.15,2013-05-09 11:10:00,
2013-05-09 05:20:00,45.0,31.9,29.85,WNW,283,1.0,3.0,60,0.00,,,0.00,0,Wunderground v.1.15,2013-05-09 11:20:00,
2013-05-09 05:25:00,45.0,31.9,29.85,WNW,283,2.0,3.0,60,0.00,,,0.00,0,Wunderground v.1.15,2013-05-09 11:25:00,
2013-05-09 05:35:00,45.0,31.9,29.85,West,280,3.0,5.0,60,0.00,,,0.00,0,Wunderground v.1.15,2013-05-09 11:35:00,
2013-05-09 05:45:00,45.4,32.3,29.85,West,280,3.0,4.0,60,0.00,,,0.00,0,Wunderground v.1.15,2013-05-09 11:45:00,
2013-05-09 05:55:00,45.5,32.0,29.85,West,280,2.0,2.0,59,0.00,,,0.00,0,Wunderground v.1.15,2013-05-09 11:55:00,
2013-05-09 06:05:00,45.5,32.0,29.85,West,280,1.0,5.0,59,0.00,,,0.00,7,Wunderground v.1.15,2013-05-09 12:05:00,
2013-05-09 06:10:00,45.3,31.8,29.85,West,274,3.0,5.0,59,0.00,,,0.00,9,Wunderground v.1.15,2013-05-09 12:10:00,
2013-05-09 06:20:00,45.8,31.9,29.85,West,260,1.0,1.0,58,0.00,,,0.00,14,Wunderground v.1.15,2013-05-09 12:20:00,
2013-05-09 06:25:00,45.8,32.3,29.86,West,272,0.0,1.0,59,0.00,,,0.00,16,Wunderground v.1.15,2013-05-09 12:25:00,
2013-05-09 06:35:00,45.6,32.5,29.87,West,272,1.0,3.0,60,0.00,,,0.00,21,Wunderground v.1.15,2013-05-09 12:35:00,
2013-05-09 06:40:00,45.4,32.3,29.87,West,272,1.0,3.0,60,0.00,,,0.00,23,Wunderground v.1.15,2013-05-09 12:40:00,
2013-05-09 06:45:00,45.2,32.5,29.87,West,272,2.0,3.0,61,0.00,,,0.00,25,Wunderground v.1.15,2013-05-09 12:45:00,
2013-05-09 06:55:00,45.0,32.8,29.87,West,278,4.0,5.0,62,0.00,,,0.00,28,Wunderground v.1.15,2013-05-09 12:55:00,
2013-05-09 07:05:00,45.1,33.6,29.87,West,278,1.0,2.0,64,0.00,,,0.00,32,Wunderground v.1.15,2013-05-09 13:05:00,
2013-05-09 07:10:00,45.0,33.9,29.87,West,278,1.0,1.0,65,0.00,,,0.00,33,Wunderground v.1.15,2013-05-09 13:10:00,
2013-05-09 07:15:00,45.0,33.5,29.87,West,278,1.0,2.0,64,0.00,,,0.00,39,Wunderground v.1.15,2013-05-09 13:15:00,
2013-05-09 07:20:00,45.0,33.5,29.88,West,278,1.0,1.0,64,0.00,,,0.00,47,Wunderground v.1.15,2013-05-09 13:20:00,
2013-05-09 07:25:00,45.0,34.3,29.88,West,278,0.0,1.0,66,0.00,,,0.00,54,Wunderground v.1.15,2013-05-09 13:25:00,
2013-05-09 07:35:00,44.6,33.9,29.89,West,279,0.0,2.0,66,0.00,,,0.00,62,Wunderground v.1.15,2013-05-09 13:35:00,
2013-05-09 07:40:00,44.5,33.8,29.89,West,279,1.0,1.0,66,0.00,,,0.00,90,Wunderground v.1.15,2013-05-09 13:40:00,
2013-05-09 07:50:00,44.9,35.0,29.89,West,280,0.0,0.0,68,0.00,,,0.00,178,Wunderground v.1.15,2013-05-09 13:50:00,
2013-05-09 07:55:00,45.4,34.3,29.89,West,280,0.0,1.0,65,0.00,,,0.00,158,Wunderground v.1.15,2013-05-09 13:55:00,
2013-05-09 08:00:00,45.8,33.5,29.89,West,279,1.0,1.0,62,0.00,,,0.00,149,Wunderground v.1.15,2013-05-09 14:00:00,
2013-05-09 08:05:00,46.1,34.2,29.89,West,280,1.0,1.0,63,0.00,,,0.00,144,Wunderground v.1.15,2013-05-09 14:05:00,
2013-05-09 08:15:00,47.2,36.4,29.89,West,279,0.0,1.0,66,0.00,,,0.00,105,Wunderground v.1.15,2013-05-09 14:15:00,
2013-05-09 08:25:00,47.8,37.0,29.89,West,278,1.0,2.0,66,0.00,,,0.00,209,Wunderground v.1.15,2013-05-09 14:25:00,
2013-05-09 08:35:00,48.3,34.6,29.89,West,279,0.0,1.0,59,0.00,,,0.00,439,Wunderground v.1.15,2013-05-09 14:35:00,
2013-05-09 08:45:00,49.7,35.9,29.88,SE,142,2.0,2.0,59,0.00,,,0.00,237,Wunderground v.1.15,2013-05-09 14:45:00,
2013-05-09 08:55:00,50.6,35.5,29.88,SE,142,0.0,2.0,56,0.00,,,0.00,561,Wunderground v.1.15,2013-05-09 14:55:00,
2013-05-09 09:00:00,51.3,35.7,29.88,SE,142,0.0,0.0,55,0.00,,,0.00,541,Wunderground v.1.15,2013-05-09 15:00:00,
2013-05-09 09:10:00,53.3,37.1,29.88,SE,142,2.0,2.0,54,0.00,,,0.00,659,Wunderground v.1.15,2013-05-09 15:10:00,
2013-05-09 09:20:00,54.9,38.1,29.88,SE,142,2.0,2.0,53,0.00,,,0.00,385,Wunderground v.1.15,2013-05-09 15:20:00,
2013-05-09 09:25:00,55.3,37.5,29.87,SE,142,1.0,2.0,51,0.00,,,0.00,698,Wunderground v.1.15,2013-05-09 15:25:00,
2013-05-09 09:35:00,55.8,36.9,29.87,SE,142,1.0,2.0,49,0.00,,,0.00,684,Wunderground v.1.15,2013-05-09 15:35:00,
2013-05-09 09:40:00,56.1,37.2,29.87,SE,142,1.0,1.0,49,0.00,,,0.00,670,Wunderground v.1.15,2013-05-09 15:40:00,
2013-05-09 09:50:00,57.3,37.2,29.86,SE,142,0.0,2.0,47,0.00,,,0.00,619,Wunderground v.1.15,2013-05-09 15:50:00,
2013-05-09 09:55:00,58.1,38.0,29.86,SE,141,1.0,3.0,47,0.00,,,0.00,376,Wunderground v.1.15,2013-05-09 15:55:00,
2013-05-09 10:00:00,58.9,38.7,29.86,ESE,104,1.0,1.0,47,0.00,,,0.00,332,Wunderground v.1.15,2013-05-09 16:00:00,
2013-05-09 10:10:00,59.6,38.8,29.86,ESE,104,1.0,1.0,46,0.00,,,0.00,360,Wunderground v.1.15,2013-05-09 16:10:00,
2013-05-09 10:15:00,59.9,38.5,29.86,ESE,104,1.0,2.0,45,0.00,,,0.00,346,Wunderground v.1.15,2013-05-09 16:15:00,
2013-05-09 10:25:00,60.3,37.1,29.86,ESE,104,0.0,1.0,42,0.00,,,0.00,346,Wunderground v.1.15,2013-05-09 16:25:00,
2013-05-09 10:30:00,60.5,36.0,29.85,ESE,104,0.0,0.0,40,0.00,,,0.00,450,Wunderground v.1.15,2013-05-09 16:30:00,
2013-05-09 10:40:00,62.0,37.4,29.85,ESE,110,2.0,2.0,40,0.00,,,0.00,577,Wunderground v.1.15,2013-05-09 16:40:00,
2013-05-09 10:50:00,63.2,35.8,29.85,ESE,104,2.0,2.0,36,0.00,,,0.00,403,Wunderground v.1.15,2013-05-09 16:50:00,
2013-05-09 10:55:00,63.4,34.5,29.85,ESE,104,2.0,2.0,34,0.00,,,0.00,218,Wunderground v.1.15,2013-05-09 16:55:00,
2013-05-09 11:00:00,63.3,34.4,29.85,ESE,104,2.0,2.0,34,0.00,,,0.00,181,Wunderground v.1.15,2013-05-09 17:00:00,
2013-05-09 11:05:00,63.2,37.2,29.85,ENE,75,1.0,5.0,38,0.00,,,0.00,178,Wunderground v.1.15,2013-05-09 17:05:00,
2013-05-09 11:10:00,62.9,36.9,29.85,ENE,74,1.0,3.0,38,0.00,,,0.00,163,Wunderground v.1.15,2013-05-09 17:10:00,
2013-05-09 11:20:00,62.7,42.7,29.85,ENE,74,1.0,3.0,48,0.00,,,0.00,193,Wunderground v.1.15,2013-05-09 17:20:00,
2013-05-09 11:25:00,62.3,41.2,29.86,NNE,25,2.0,3.0,46,0.00,,,0.01,244,Wunderground v.1.15,2013-05-09 17:25:00,
2013-05-09 11:30:00,61.1,41.2,29.85,East,93,3.0,7.0,48,0.00,,,0.01,190,Wunderground v.1.15,2013-05-09 17:30:00,
2013-05-09 11:35:00,60.2,39.3,29.85,ENE,76,4.0,11.0,46,0.00,,,0.01,227,Wunderground v.1.15,2013-05-09 17:35:00,
2013-05-09 11:40:00,59.8,40.6,29.86,NE,56,5.0,8.0,49,0.00,,,0.01,232,Wunderground v.1.15,2013-05-09 17:40:00,
2013-05-09 11:45:00,59.7,41.5,29.86,ENE,74,4.0,8.0,51,0.00,,,0.01,167,Wunderground v.1.15,2013-05-09 17:45:00,
2013-05-09 11:55:00,59.5,39.8,29.86,ESE,105,3.0,4.0,48,0.00,,,0.01,265,Wunderground v.1.15,2013-05-09 17:55:00,
2013-05-09 12:00:00,59.5,38.7,29.86,East,97,3.0,3.0,46,0.00,,,0.01,290,Wunderground v.1.15,2013-05-09 18:00:00,
2013-05-09 12:05:00,59.6,39.9,29.86,ENE,76,3.0,3.0,48,0.00,,,0.01,357,Wunderground v.1.15,2013-05-09 18:05:00,
2013-05-09 12:10:00,60.1,39.8,29.86,East,81,3.0,3.0,47,0.00,,,0.01,1129,Wunderground v.1.15,2013-05-09 18:10:00,
2013-05-09 12:20:00,62.5,37.8,29.85,East,87,2.0,2.0,40,0.00,,,0.01,997,Wunderground v.1.15,2013-05-09 18:20:00,
2013-05-09 12:25:00,63.8,38.4,29.85,NNW,341,1.0,2.0,39,0.00,,,0.01,977,Wunderground v.1.15,2013-05-09 18:25:00,
2013-05-09 12:35:00,65.8,41.4,29.84,ESE,112,3.0,3.0,41,0.00,,,0.01,967,Wunderground v.1.15,2013-05-09 18:35:00,
2013-05-09 12:45:00,67.7,38.3,29.84,East,89,5.0,5.0,34,0.00,,,0.01,979,Wunderground v.1.15,2013-05-09 18:45:00,
2013-05-09 12:50:00,68.3,38.1,29.84,ENE,60,4.0,4.0,33,0.00,,,0.01,983,Wunderground v.1.15,2013-05-09 18:50:00,
2013-05-09 12:55:00,68.5,39.0,29.84,South,169,3.0,4.0,34,0.00,,,0.01,991,Wunderground v.1.15,2013-05-09 18:55:00,
2013-05-09 13:05:00,69.4,39.8,29.83,East,87,3.0,5.0,34,0.00,,,0.01,1002,Wunderground v.1.15,2013-05-09 19:05:00,
2013-05-09 13:10:00,69.5,40.6,29.83,ESE,111,3.0,4.0,35,0.00,,,0.01,1020,Wunderground v.1.15,2013-05-09 19:10:00,
2013-05-09 13:15:00,70.5,38.4,29.83,ENE,58,3.0,4.0,31,0.00,,,0.01,1071,Wunderground v.1.15,2013-05-09 19:15:00,
2013-05-09 13:20:00,71.1,40.5,29.83,NE,47,3.0,4.0,33,0.00,,,0.01,1109,Wunderground v.1.15,2013-05-09 19:20:00,
2013-05-09 13:25:00,71.4,39.2,29.82,NE,52,3.0,4.0,31,0.00,,,0.01,313,Wunderground v.1.15,2013-05-09 19:25:00,
2013-05-09 13:30:00,71.3,38.2,29.82,NNW,335,2.0,2.0,30,0.00,,,0.01,292,Wunderground v.1.15,2013-05-09 19:30:00,
2013-05-09 13:35:00,70.3,39.0,29.82,NNW,341,1.0,2.0,32,0.00,,,0.01,272,Wunderground v.1.15,2013-05-09 19:35:00,
2013-05-09 13:40:00,69.0,37.1,29.82,NNW,328,1.0,1.0,31,0.00,,,0.01,236,Wunderground v.1.15,2013-05-09 19:40:00,
2013-05-09 13:45:00,68.2,37.2,29.83,WNW,303,2.0,5.0,32,0.00,,,0.01,202,Wunderground v.1.15,2013-05-09 19:45:00,
2013-05-09 13:50:00,67.6,37.5,29.83,WNW,303,2.0,2.0,33,0.00,,,0.01,165,Wunderground v.1.15,2013-05-09 19:50:00,
2013-05-09 13:55:00,66.6,35.8,29.83,WNW,301,3.0,7.0,32,0.00,,,0.01,146,Wunderground v.1.15,2013-05-09 19:55:00,
2013-05-09 14:00:00,65.5,36.4,29.82,WNW,299,5.0,7.0,34,0.00,,,0.01,139,Wunderground v.1.15,2013-05-09 20:00:00,
2013-05-09 14:05:00,64.6,36.3,29.82,WNW,286,7.0,12.0,35,0.00,,,0.01,125,Wunderground v.1.15,2013-05-09 20:05:00,
2013-05-09 14:15:00,63.7,34.0,29.83,West,274,9.0,10.0,33,0.00,,,0.01,67,Wunderground v.1.15,2013-05-09 20:15:00,
2013-05-09 14:25:00,63.2,35.1,29.83,NW,312,8.0,21.0,35,0.00,,,0.01,30,Wunderground v.1.15,2013-05-09 20:25:00,
2013-05-09 14:30:00,61.6,36.4,29.84,West,278,17.0,29.0,39,0.00,,,0.01,23,Wunderground v.1.15,2013-05-09 20:30:00,
2013-05-09 14:40:00,57.4,38.9,29.88,WSW,257,18.0,18.0,50,0.28,,,0.03,16,Wunderground v.1.15,2013-05-09 20:40:00,
2013-05-09 14:45:00,55.6,39.7,29.88,West,281,13.0,18.0,55,0.27,,,0.05,18,Wunderground v.1.15,2013-05-09 20:45:00,
2013-05-09 14:50:00,53.9,40.8,29.89,West,278,17.0,20.0,61,0.13,,,0.06,21,Wunderground v.1.15,2013-05-09 20:50:00,
2013-05-09 14:55:00,53.0,40.7,29.90,West,270,17.0,20.0,63,0.08,,,0.06,35,Wunderground v.1.15,2013-05-09 20:55:00,
2013-05-09 15:00:00,52.4,40.2,29.89,WSW,246,14.0,14.0,63,0.05,,,0.07,58,Wunderground v.1.15,2013-05-09 21:00:00,
2013-05-09 15:05:00,52.3,40.5,29.90,SW,216,13.0,14.0,64,0.05,,,0.07,65,Wunderground v.1.15,2013-05-09 21:05:00,
2013-05-09 15:10:00,52.2,40.4,29.90,WSW,239,13.0,13.0,64,0.05,,,0.07,93,Wunderground v.1.15,2013-05-09 21:10:00,
2013-05-09 15:20:00,53.0,39.5,29.89,South,185,8.0,9.0,60,0.00,,,0.07,144,Wunderground v.1.15,2013-05-09 21:20:00,
2013-05-09 15:25:00,53.7,40.1,29.89,SSE,156,9.0,9.0,60,0.00,,,0.07,158,Wunderground v.1.15,2013-05-09 21:25:00,
2013-05-09 15:35:00,53.5,40.4,29.90,SSE,147,10.0,10.0,61,0.00,,,0.07,130,Wunderground v.1.15,2013-05-09 21:35:00,
2013-05-09 15:40:00,53.3,40.6,29.90,South,170,11.0,11.0,62,0.00,,,0.07,100,Wunderground v.1.15,2013-05-09 21:40:00,
2013-05-09 15:50:00,53.5,40.4,29.90,SSW,207,9.0,11.0,61,0.00,,,0.07,76,Wunderground v.1.15,2013-05-09 21:50:00,
2013-05-09 15:55:00,53.8,39.4,29.91,SSW,204,10.0,18.0,58,0.00,,,0.07,62,Wunderground v.1.15,2013-05-09 21:55:00,
2013-05-09 16:05:00,54.3,38.5,29.90,SSE,166,12.0,12.0,55,0.00,,,0.07,37,Wunderground v.1.15,2013-05-09 22:05:00,
2013-05-09 16:10:00,54.4,39.5,29.91,SW,230,10.0,10.0,57,0.00,,,0.07,39,Wunderground v.1.15,2013-05-09 22:10:00,
2013-05-09 16:20:00,54.2,39.7,29.91,WSW,251,10.0,11.0,58,0.00,,,0.07,49,Wunderground v.1.15,2013-05-09 22:20:00,
2013-05-09 16:25:00,53.1,40.0,29.90,WSW,257,14.0,16.0,61,0.00,,,0.08,105,Wunderground v.1.15,2013-05-09 22:25:00,
2013-05-09 16:30:00,52.6,38.7,29.91,WSW,241,15.0,15.0,59,0.00,,,0.08,141,Wunderground v.1.15,2013-05-09 22:30:00,
2013-05-09 16:35:00,52.2,38.7,29.91,WSW,258,14.0,15.0,60,0.00,,,0.08,128,Wunderground v.1.15,2013-05-09 22:35:00,
2013-05-09 16:45:00,52.2,38.3,29.91,SW,216,14.0,17.0,59,0.00,,,0.08,83,Wunderground v.1.15,2013-05-09 22:45:00,
2013-05-09 16:50:00,53.3,38.0,29.91,SSW,199,13.0,13.0,56,0.00,,,0.08,90,Wunderground v.1.15,2013-05-09 22:50:00,
2013-05-09 17:00:00,53.3,39.8,29.90,SSE,153,10.0,10.0,60,0.00,,,0.08,127,Wunderground v.1.15,2013-05-09 23:00:00,
2013-05-09 17:05:00,52.6,39.5,29.90,SSE,149,12.0,12.0,61,0.00,,,0.08,125,Wunderground v.1.15,2013-05-09 23:05:00,
2013-05-09 17:15:00,52.9,39.0,29.89,South,175,12.0,15.0,59,0.00,,,0.08,120,Wunderground v.1.15,2013-05-09 23:15:00,
2013-05-09 17:20:00,53.2,39.2,29.90,SW,221,14.0,14.0,59,0.00,,,0.08,120,Wunderground v.1.15,2013-05-09 23:20:00,
2013-05-09 17:25:00,53.5,39.1,29.90,SW,219,13.0,16.0,58,0.00,,,0.08,113,Wunderground v.1.15,2013-05-09 23:25:00,
2013-05-09 17:30:00,54.0,38.6,29.89,SSW,208,13.0,19.0,56,0.00,,,0.08,98,Wunderground v.1.15,2013-05-09 23:30:00,
2013-05-09 17:35:00,54.0,38.6,29.90,SE,143,14.0,19.0,56,0.00,,,0.08,109,Wunderground v.1.15,2013-05-09 23:35:00,
2013-05-09 17:40:00,54.0,38.6,29.90,South,169,13.0,15.0,56,0.00,,,0.08,134,Wunderground v.1.15,2013-05-09 23:40:00,
2013-05-09 17:45:00,54.0,38.6,29.90,SW,214,14.0,15.0,56,0.00,,,0.08,149,Wunderground v.1.15,2013-05-09 23:45:00,
2013-05-09 17:50:00,54.1,38.7,29.89,SE,135,13.0,13.0,56,0.00,,,0.08,165,Wunderground v.1.15,2013-05-09 23:50:00,
2013-05-09 18:00:00,54.5,38.7,29.89,South,175,12.0,12.0,55,0.00,,,0.08,193,Wunderground v.1.15,2013-05-10 00:00:00,
2013-05-09 18:05:00,54.9,38.1,29.89,SW,216,13.0,13.0,53,0.00,,,0.08,309,Wunderground v.1.15,2013-05-10 00:05:00,
2013-05-09 18:10:00,55.4,38.1,29.89,South,175,13.0,13.0,52,0.00,,,0.08,287,Wunderground v.1.15,2013-05-10 00:10:00,
2013-05-09 18:20:00,55.6,37.7,29.88,SSW,197,12.0,12.0,51,0.00,,,0.08,137,Wunderground v.1.15,2013-05-10 00:20:00,
2013-05-09 18:25:00,55.5,37.7,29.88,SW,226,12.0,12.0,51,0.00,,,0.08,130,Wunderground v.1.15,2013-05-10 00:25:00,
2013-05-09 18:30:00,55.3,38.0,29.88,SSW,212,8.0,21.0,52,0.00,,,0.08,104,Wunderground v.1.15,2013-05-10 00:30:00,
2013-05-09 18:40:00,55.0,37.7,29.88,South,185,13.0,13.0,52,0.00,,,0.08,248,Wunderground v.1.15,2013-05-10 00:40:00,
2013-05-09 18:45:00,55.2,37.4,29.88,SSE,148,12.0,13.0,51,0.00,,,0.08,213,Wunderground v.1.15,2013-05-10 00:45:00,
2013-05-09 18:50:00,55.3,38.0,29.88,South,169,9.0,9.0,52,0.00,,,0.08,237,Wunderground v.1.15,2013-05-10 00:50:00,
2013-05-09 18:55:00,55.3,38.0,29.87,South,185,9.0,9.0,52,0.00,,,0.08,225,Wunderground v.1.15,2013-05-10 00:55:00,
2013-05-09 19:00:00,55.0,38.2,29.87,SSW,197,10.0,10.0,53,0.00,,,0.08,54,Wunderground v.1.15,2013-05-10 01:00:00,
2013-05-09 19:05:00,54.8,38.5,29.87,SSW,196,11.0,11.0,54,0.00,,,0.08,199,Wunderground v.1.15,2013-05-10 01:05:00,
2013-05-09 19:10:00,54.7,38.4,29.87,SE,145,10.0,10.0,54,0.00,,,0.08,185,Wunderground v.1.15,2013-05-10 01:10:00,
2013-05-09 19:15:00,54.7,38.4,29.87,South,185,10.0,10.0,54,0.00,,,0.08,167,Wunderground v.1.15,2013-05-10 01:15:00,
2013-05-09 19:25:00,54.6,38.3,29.87,SSE,152,11.0,11.0,54,0.00,,,0.08,128,Wunderground v.1.15,2013-05-10 01:25:00,
2013-05-09 19:30:00,54.6,38.3,29.87,SSE,164,10.0,10.0,54,0.00,,,0.08,33,Wunderground v.1.15,2013-05-10 01:30:00,
2013-05-09 19:35:00,54.7,37.9,29.87,South,185,10.0,10.0,53,0.00,,,0.08,30,Wunderground v.1.15,2013-05-10 01:35:00,
2013-05-09 19:40:00,54.8,38.0,29.87,SSE,152,10.0,10.0,53,0.00,,,0.08,28,Wunderground v.1.15,2013-05-10 01:40:00,
2013-05-09 19:50:00,54.6,37.8,29.88,SSE,150,10.0,10.0,53,0.00,,,0.08,25,Wunderground v.1.15,2013-05-10 01:50:00,
2013-05-09 19:55:00,54.5,38.2,29.88,SSW,193,10.0,10.0,54,0.00,,,0.08,21,Wunderground v.1.15,2013-05-10 01:55:00,
2013-05-09 20:00:00,54.3,38.0,29.88,SSW,202,10.0,11.0,54,0.00,,,0.08,19,Wunderground v.1.15,2013-05-10 02:00:00,
2013-05-09 20:05:00,54.1,38.3,29.88,South,180,9.0,11.0,55,0.00,,,0.08,18,Wunderground v.1.15,2013-05-10 02:05:00,
2013-05-09 20:10:00,53.8,38.0,29.88,South,175,8.0,8.0,55,0.00,,,0.08,16,Wunderground v.1.15,2013-05-10 02:10:00,
2013-05-09 20:15:00,53.7,37.9,29.88,SSE,165,8.0,12.0,55,0.00,,,0.08,12,Wunderground v.1.15,2013-05-10 02:15:00,
2013-05-09 20:25:00,53.1,38.3,29.89,South,180,7.0,8.0,57,0.00,,,0.08,7,Wunderground v.1.15,2013-05-10 02:25:00,
2013-05-09 20:30:00,52.9,37.6,29.89,WSW,254,6.0,7.0,56,0.00,,,0.08,5,Wunderground v.1.15,2013-05-10 02:30:00,
2013-05-09 20:35:00,52.8,37.5,29.89,SSW,196,6.0,7.0,56,0.00,,,0.08,0,Wunderground v.1.15,2013-05-10 02:35:00,
2013-05-09 20:40:00,52.7,37.9,29.89,SSW,210,6.0,7.0,57,0.00,,,0.08,0,Wunderground v.1.15,2013-05-10 02:40:00,
2013-05-09 20:50:00,52.6,37.3,29.89,WSW,252,5.0,8.0,56,0.00,,,0.08,0,Wunderground v.1.15,2013-05-10 02:50:00,
2013-05-09 20:55:00,52.4,37.6,29.89,South,180,5.0,8.0,57,0.00,,,0.08,0,Wunderground v.1.15,2013-05-10 02:55:00,
2013-05-09 21:05:00,52.2,37.4,29.90,South,175,6.0,7.0,57,0.00,,,0.08,0,Wunderground v.1.15,2013-05-10 03:05:00,
2013-05-09 21:10:00,52.2,37.4,29.89,SW,235,6.0,7.0,57,0.00,,,0.08,0,Wunderground v.1.15,2013-05-10 03:10:00,
2013-05-09 21:15:00,52.0,37.2,29.90,SW,232,6.0,7.0,57,0.00,,,0.08,0,Wunderground v.1.15,2013-05-10 03:15:00,
2013-05-09 21:20:00,52.0,36.8,29.90,SW,230,5.0,5.0,56,0.00,,,0.08,0,Wunderground v.1.15,2013-05-10 03:20:00,
2013-05-09 21:25:00,52.0,36.8,29.90,WSW,258,4.0,9.0,56,0.00,,,0.08,0,Wunderground v.1.15,2013-05-10 03:25:00,
2013-05-09 21:30:00,52.1,36.9,29.91,WSW,249,6.0,8.0,56,0.00,,,0.08,0,Wunderground v.1.15,2013-05-10 03:30:00,
2013-05-09 21:40:00,51.9,37.1,29.91,WSW,239,6.0,7.0,57,0.00,,,0.08,0,Wunderground v.1.15,2013-05-10 03:40:00,
2013-05-09 21:45:00,51.7,36.5,29.91,SW,236,6.0,7.0,56,0.00,,,0.08,0,Wunderground v.1.15,2013-05-10 03:45:00,
2013-05-09 21:50:00,51.8,36.1,29.91,WSW,245,6.0,7.0,55,0.00,,,0.08,0,Wunderground v.1.15,2013-05-10 03:50:00,
2013-05-09 21:55:00,51.8,36.6,29.91,SSW,212,6.0,7.0,56,0.00,,,0.08,0,Wunderground v.1.15,2013-05-10 03:55:00,
2013-05-09 22:05:00,51.4,36.2,29.91,SW,229,6.0,8.0,56,0.00,,,0.08,0,Wunderground v.1.15,2013-05-10 04:05:00,
2013-05-09 22:10:00,51.1,36.4,29.91,SW,235,6.0,6.0,57,0.00,,,0.08,0,Wunderground v.1.15,2013-05-10 04:10:00,
2013-05-09 22:15:00,51.1,35.9,29.91,WSW,254,7.0,7.0,56,0.00,,,0.08,0,Wunderground v.1.15,2013-05-10 04:15:00,
2013-05-09 22:20:00,51.0,35.8,29.91,SSE,167,5.0,5.0,56,0.00,,,0.08,0,Wunderground v.1.15,2013-05-10 04:20:00,
2013-05-09 22:25:00,50.9,34.8,29.92,SSW,210,4.0,5.0,54,0.00,,,0.08,0,Wunderground v.1.15,2013-05-10 04:25:00,
2013-05-09 22:30:00,50.9,35.3,29.92,SW,219,4.0,4.0,55,0.00,,,0.08,0,Wunderground v.1.15,2013-05-10 04:30:00,
2013-05-09 22:35:00,51.0,34.9,29.92,WSW,250,3.0,4.0,54,0.00,,,0.08,0,Wunderground v.1.15,2013-05-10 04:35:00,
2013-05-09 22:40:00,50.8,34.7,29.92,WSW,252,4.0,7.0,54,0.00,,,0.08,0,Wunderground v.1.15,2013-05-10 04:40:00,
2013-05-09 22:45:00,50.0,34.9,29.92,WSW,258,4.0,7.0,56,0.00,,,0.08,0,Wunderground v.1.15,2013-05-10 04:45:00,
2013-05-09 22:55:00,49.5,34.9,29.92,WSW,258,2.0,3.0,57,0.00,,,0.08,0,Wunderground v.1.15,2013-05-10 04:55:00,
2013-05-09 23:05:00,49.2,34.6,29.92,SSW,211,2.0,3.0,57,0.00,,,0.08,0,Wunderground v.1.15,2013-05-10 05:05:00,
2013-05-09 23:10:00,49.3,34.7,29.92,South,189,3.0,3.0,57,0.00,,,0.08,0,Wunderground v.1.15,2013-05-10 05:10:00,
2013-05-09 23:15:00,49.8,34.7,29.92,WSW,256,4.0,5.0,56,0.00,,,0.08,0,Wunderground v.1.15,2013-05-10 05:15:00,
2013-05-09 23:20:00,50.0,34.5,29.92,WSW,252,4.0,4.0,55,0.00,,,0.08,0,Wunderground v.1.15,2013-05-10 05:20:00,
2013-05-09 23:25:00,50.1,34.1,29.92,WSW,243,4.0,10.0,54,0.00,,,0.08,0,Wunderground v.1.15,2013-05-10 05:25:00,
2013-05-09 23:35:00,49.6,34.5,29.92,SSW,197,2.0,6.0,56,0.00,,,0.08,0,Wunderground v.1.15,2013-05-10 05:35:00,
2013-05-09 23:45:00,49.3,34.3,29.92,SW,226,3.0,3.0,56,0.00,,,0.08,0,Wunderground v.1.15,2013-05-10 05:45:00,
2013-05-09 23:50:00,49.4,34.3,29.92,SW,226,2.0,2.0,56,0.00,,,0.08,0,Wunderground v.1.15,2013-05-10 05:50:00,
2013-05-09 23:55:00,48.9,33.9,29.92,SW,226,2.0,3.0,56,0.00,,,0.08,0,Wunderground v.1.15,2013-05-10 05:55:00,